DW8433 Weather Reports


time (UTC)temp
C
wind
direction
speed
KPH
gust
KPH
rain 1hr
cm
rain 24hr
cm
rain mn
cm
humidity
%
barometer
mb
20260503055007 7 269 0.0 0.0 0.00 0.00 0.00 81 1014.7
20260503054006 7 269 0.0 0.0 0.00 0.00 0.00 81 1014.6
20260503053006 7 269 0.0 0.0 0.00 0.00 0.00 77 1014.5
20260503045006 8 269 0.0 3.2 0.00 0.00 0.00 74 1014.4
20260503041006 10 269 0.0 1.6 0.00 0.00 0.00 69 1014.0
20260503040005 11 269 1.6 3.2 0.00 0.00 0.00 69 1013.7
20260503035006 11 269 1.6 3.2 0.00 0.00 0.00 64 1013.6
20260503034006 12 269 1.6 4.8 0.00 0.00 0.00 64 1013.4
20260503032006 13 269 1.6 4.8 0.00 0.00 0.00 62 1013.0
20260503030004 14 269 0.0 3.2 0.00 0.00 0.00 58 1012.8
20260503024006 15 269 0.0 4.8 0.00 0.00 0.00 56 1012.7
20260503022006 16 269 3.2 4.8 0.00 0.00 0.00 51 1012.6
20260503021006 17 269 3.2 4.8 0.00 0.00 0.00 49 1012.6
20260503014006 22 286 1.6 12.9 0.00 0.00 0.00 37 1012.6
20260503011006 22 337 6.4 16.1 0.00 0.00 0.00 28 1012.7
20260503010005 23 331 4.8 19.3 0.00 0.00 0.00 25 1012.7
20260503005006 23 342 12.9 19.3 0.00 0.00 0.00 25 1012.7
20260503000005 24 333 11.3 19.3 0.00 0.00 0.00 24 1012.7
20260502235006 24 281 3.2 19.3 0.00 0.00 0.00 26 1012.7
20260502234006 23 332 9.7 19.3 0.00 0.00 0.00 29 1012.7
20260502233006 24 0 9.7 19.3 0.00 0.00 0.00 25 1012.9
20260502225006 23 333 9.7 19.3 0.00 0.00 0.00 26 1013.4
20260502224005 23 344 6.4 22.5 0.00 0.00 0.00 25 1013.5
20260502222006 24 338 6.4 20.9 0.00 0.00 0.00 27 1013.8
20260502220004 24 354 16.1 24.1 0.00 0.00 0.00 26 1014.1
20260502213006 23 47 1.6 8.0 0.00 0.00 0.00 27 1014.4
20260502211006 23 323 4.8 19.3 0.00 0.00 0.00 25 1014.5
20260502205006 23 217 3.2 14.5 0.00 0.00 0.00 28 1014.7
20260502204006 23 316 11.3 19.3 0.00 0.00 0.00 25 1014.7
20260502203006 23 331 8.0 14.5 0.00 0.00 0.00 27 1014.7
20260502201006 23 201 6.4 14.5 0.00 0.00 0.00 27 1014.8
20260502193005 22 351 3.2 12.9 0.00 0.00 0.00 28 1015.1
20260502192005 22 280 6.4 12.9 0.00 0.00 0.00 30 1015.3
20260502191006 22 327 4.8 9.7 0.00 0.00 0.00 29 1015.3
20260502190004 22 279 3.2 16.1 0.00 0.00 0.00 27 1015.4
20260502184006 22 17 3.2 12.9 0.00 0.00 0.00 36 1015.6
20260502181005 21 36 4.8 11.3 0.00 0.00 0.00 40 1015.9
20260502164007 15 14 1.6 4.8 0.00 0.00 0.00 63 1016.7
20260502163007 13 344 1.6 4.8 0.00 0.00 0.00 64 1016.7
20260502162006 13 23 3.2 4.8 0.00 0.00 0.00 66 1016.8
20260502161007 12 28 3.2 12.9 0.00 0.00 0.00 70 1017.0
20260502151006 7 250 0.0 0.0 0.00 0.00 0.00 89 1017.4
20260502121006 1 250 0.0 0.0 0.00 0.00 0.00 93 1017.2
20260502114007 1 250 0.0 0.0 0.00 0.00 0.00 93 1017.1
20260502113007 1 250 0.0 0.0 0.00 0.00 0.00 93 1017.1
20260502111006 1 250 0.0 0.0 0.00 0.00 0.00 93 1017.2
20260502110005 1 250 0.0 0.0 0.00 0.00 0.00 93 1017.2
20260502105006 1 250 0.0 0.0 0.00 0.00 0.00 92 1017.2
20260502103006 1 250 0.0 0.0 0.00 0.00 0.00 92 1017.4
20260502071006 4 250 0.0 0.0 0.00 0.00 0.00 88 1017.3